This demonstration page uses our WeatherBlox Daily Observations layout. Learn more.

Left ArrowRight Arrow

Hourly Observations for June 30, 2017

Temp ( °F °C ) Dew Point ( °F °C ) Humidity (%) Winds ( mph kmh ) Pressure ( in mb ) Visibility ( mi km ) Precip ( " mm )
12:59 am 00:59 Partly Cloudy 76 24.4 67 19.4 74 74 SSW 12 19 30.14 1021 10 16 0.00 0.00
1:59 am 01:59 Partly Cloudy 75 23.9 67 19.4 76 76 SSW 9 15 30.14 1021 10 16 0.00 0.00
2:59 am 02:59 Partly Cloudy 74 23.3 68 20 82 82 SSW 9 15 30.13 1020 10 16 0.00 0.00
3:59 am 03:59 Partly Cloudy 74 23.3 68 20 82 82 SSW 7 11 30.13 1020 10 16 0.00 0.00
4:59 am 04:59 Partly Cloudy 74 23.3 68 20 82 82 SSW 7 11 30.13 1020 10 16 0.00 0.00
5:59 am 05:59 Mostly Sunny 73 22.8 68 20 84 84 SSW 10 17 30.14 1021 9 14 0.00 0.00
6:59 am 06:59 Partly Cloudy 75 23.9 68 20 79 79 SSW 9 15 30.15 1021 9 14 0.00 0.00
7:59 am 07:59 Partly Cloudy 78 25.6 69 20.6 74 74 SW 7 11 30.16 1021 10 16 0.00 0.00
8:59 am 08:59 Partly Cloudy 80 26.7 70 21.1 71 71 SW 12 19 30.16 1021 10 16 0.00 0.00
9:59 am 09:59 Partly Cloudy 83 28.3 70 21.1 65 65 SSW 12 19 30.16 1021 10 16 0.00 0.00
10:59 am 10:59 Partly Cloudy 85 29.4 69 20.6 59 59 SW 10 17 30.16 1021 10 16 0.00 0.00
11:59 am 11:59 Partly Cloudy 86 30 68 20 55 55 WSW 12 19 30.14 1021 10 16 0.00 0.00
12:59 pm 12:59 Partly Cloudy 89 31.7 68 20 50 50 VRB 7 11 30.11 1020 10 16 0.00 0.00
1:59 pm 13:59 Partly Cloudy 89 31.7 65 18.3 45 45 SW 9 15 30.09 1019 10 16 0.00 0.00
2:59 pm 14:59 Mostly Cloudy 88 31.1 65 18.3 46 46 S 9 15 30.08 1019 10 16 0.00 0.00
3:59 pm 15:59 Partly Cloudy 90 32.2 67 19.4 47 47 S 8 13 30.07 1018 10 16 0.00 0.00
4:59 pm 16:59 Partly Cloudy 88 31.1 64 17.8 45 45 S 17 28 30.05 1018 10 16 0.00 0.00
5:59 pm 17:59 Partly Cloudy 90 32.2 66 18.9 45 45 S 12 19 30.05 1018 10 16 0.00 0.00
6:59 pm 18:59 Mostly Cloudy 87 30.6 68 20 53 53 SSW 12 19 30.03 1017 10 16 0.00 0.00
8:59 pm 20:59 Mostly Cloudy 83 28.3 71 21.7 67 67 S 12 19 30.04 1017 10 16 0.00 0.00
9:59 pm 21:59 Mostly Cloudy 82 27.8 71 21.7 69 69 SSW 9 15 30.05 1018 10 16 0.00 0.00
10:59 pm 22:59 Mostly Cloudy 81 27.2 71 21.7 72 72 SSW 10 17 30.06 1018 10 16 0.00 0.00
11:59 pm 23:59 Partly Cloudy 80 26.7 71 21.7 74 74 S 9 15 30.06 1018 10 16 0.00 0.00

Powered by AerisWeather